Powrót do katalogu

STARLINK-34977

AktywnyŁącznośćSSO
NORAD 65245·PAYLOAD·🇺🇸 United States

Wystrzelony Aug 18, 2025 z Vandenberg Space Force Base

Loading…

Następne Przeloty (najbliższe 24 godziny)

TLE

ŚwieżeSource: CelesTrak SupGP

Epoka: Sep 15, 2026, 02:33 UTC

1 65245C 25179L   26258.10673611  .00016351  00000+0  50746-3 0  2582
2 65245  97.2836 297.4749 0001035  84.4550 293.5685 15.33437900    10

Śledź STARLINK-34977 w czasie rzeczywistym z AllMySat

Download on the App Store